Lid_Strength_Index
6 6 6 6 5 5 5 5 5 5 5 5 5 5 5 5 5 6 6 4 7 9 9 7 7 8 8 8 10 7 8 6 7 10 10 10 11 9 10 9 11 12 12 12 12 14 16 6 7 10 8 5 5 5
6 6 6 6 6 5 5 5 5 5 5 4 4 5 5 5 5 5 8 4 3 7 8 5 5 5 5 5 7 7 7 7 6 9 9 9 10 9 10 13 7 13 11 12 11 12 7 5 6 4 4 6 5 4
6 6 6 6 6 5 5 5 5 5 4 4 4 4 4 4 4 4 5 4 3 7 7 6 6 3 2 3 2 8 6 4 5 4 7 8 11 9 12 11 10 9 7 10 10 8 7 5 4 4 5 4 4 4
6 6 6 6 5 5 5 5 5 4 4 4 4 3 3 3 2 2 4 0 2 5 9 7 2 3 1 1 1 1 3 2 3 4 7 9 10 7 11 10 11 9 8 9 9 7 6 5 4 4 4 4 4 3
6 6 6 6 5 5 5 5 5 4 4 3 2 2 2 1 1 1 1 1 -1 3 8 6 3 1 0 1 2 1 2 3 5 7 8 9 7 7 7 7 9 7 9 9 11 6 6 6 4 3 4 4 3 4
6 6 6 5 5 5 4 4 4 3 2 1 1 1 1 1 1 1 3 1 -2 -1 5 8 3 2 1 1 2 2 2 3 5 6 7 6 4 7 10 10 6 5 4 4 6 4 4 4 3 3 3 3 3 3
6 5 5 4 4 3 3 2 2 1 1 1 1 1 0 -1 -1 2 4 1 -1 -1 5 7 6 3 2 2 3 3 2 4 4 6 6 7 7 6 8 10 6 4 4 4 3 3 5 4 5 3 2 2 3 3
5 4 3 2 2 2 2 1 1 1 0 0 -0 -1 -1 -1 -1 1 -1 -2 -1 2 3 8 7 5 3 5 6 3 5 4 5 6 5 7 6 6 9 6 5 4 4 4 4 3 4 3 3 3 2 3 3 3
3 3 2 2 1 0 1 0 0 -0 -1 -2 -2 -2 -1 0 2 1 -0 -1 -1 2 7 7 8 10 3 6 5 6 4 8 4 7 7 7 9 10 7 6 6 5 5 4 3 3 3 4 4 3 3 3 3 3
2 2 2 2 1 0 0 -1 -2 -2 -2 -2 -1 2 5 2 -1 -1 1 4 4 4 4 7 5 9 6 6 8 8 6 9 10 7 5 8 9 5 5 5 4 4 4 3 4 5 4 4 4 4 3 3 3 3
2 2 1 1 1 1 -1 -2 -2 -2 -2 0 3 4 0 -1 1 3 6 7 6 8 6 5 5 8 4 9 9 6 9 9 12 9 9 10 10 7 5 4 3 3 3 3 3 3 3 3 3 3 3 3 3 3
2 2 1 1 0 -1 -1 -2 -2 -1 -0 1 1 -0 0 3 4 7 8 6 8 10 6 7 6 5 5 4 6 6 9 8 13 6 9 12 9 5 4 4 3 3 2 3 2 3 2 3 3 3 3 3 3 2
2 1 1 1 -1 -1 -2 -2 -2 -1 -1 -0 2 4 4 5 10 11 12 10 10 7 6 6 8 5 5 4 6 8 11 12 6 10 13 11 7 5 4 3 3 2 2 2 2 2 2 2 2 2 3 2 2 2
1 1 0 -0 -1 -1 -1 -1 -1 -1 0 4 6 10 8 9 8 8 8 8 6 6 6 6 6 7 6 7 8 11 9 8 13 14 13 9 6 4 3 3 3 3 3 3 3 2 3 3 3 2 2 2 2 3
1 0 -1 -0 -1 -1 -1 -1 -1 -1 2 5 5 10 9 6 6 4 4 5 5 4 6 6 6 6 7 9 8 9 12 14 13 13 9 6 4 4 3 3 3 3 3 3 2 3 3 2 2 2 2 2 2 2
0 -0 -1 -1 -1 -1 -1 -1 -1 -0 2 4 4 6 5 6 6 5 5 6 4 4 4 5 8 9 10 9 11 12 13 14 12 8 6 5 4 4 3 3 2 2 2 2 2 2 2 2 2 2 2 2 2 2
0 -0 -0 -1 -1 -1 -1 -1 -0 3 3 5 5 3 4 4 5 5 4 4 3 4 8 7 11 11 7 11 12 10 12 9 6 5 4 4 4 3 3 2 2 2 2 2 2 2 2 1 1 2 3 2 2 2
1 -1 -1 -1 -1 -1 -1 0 2 3 6 4 5 5 4 3 4 4 3 3 4 5 5 8 6 10 12 12 12 9 7 6 4 4 4 3 2 2 2 2 2 2 2 2 2 2 1 2 2 2 2 1 1 1
1 -0 -1 -1 -1 0 2 1 1 5 5 4 3 3 3 3 3 3 3 3 3 3 4 6 9 10 10 10 8 6 5 4 5 4 3 2 2 2 2 2 2 2 2 2 3 3 2 1 2 2 1 1 2 2
0 -0 -1 -1 -1 1 3 2 0 4 5 4 3 4 3 4 3 3 3 3 4 5 7 9 9 9 7 5 4 5 4 4 5 4 4 3 3 3 3 2 2 1 2 1 2 4 1 2 1 1 1 1 2 2
1 -0 -0 -1 0 1 2 3 3 3 3 4 3 3 4 3 4 4 4 3 5 7 8 7 6 4 3 3 2 2 3 2 3 3 3 4 2 2 2 2 2 2 2 2 2 2 3 2 1 1 1 1 1 2
0 1 -0 -0 2 2 3 1 3 2 4 4 4 4 4 5 5 5 4 6 7 6 5 5 4 4 4 3 2 2 2 1 1 2 4 4 3 3 3 3 3 3 2 2 2 2 2 2 1 1 1 1 1 2
1 1 1 2 5 5 5 1 5 4 6 5 4 6 5 5 5 3 7 6 5 4 3 3 3 3 3 2 1 1 1 1 2 2 2 2 2 2 2 2 2 3 3 2 1 2 2 4 2 1 1 1 1 2
2 3 5 5 4 7 3 5 3 5 5 6 6 8 6 5 4 6 8 7 5 4 4 3 3 3 2 2 3 2 2 1 2 2 1 2 2 2 2 2 2 2 1 1 2 1 2 2 3 1 1 2 2 2
5 6 5 8 4 6 7 7 7 6 8 7 7 7 6 5 7 8 8 6 5 5 4 4 3 3 3 3 2 2 1 1 2 3 2 1 2 2 2 2 2 2 1 2 2 2 1 1 2 2 2 1 2 3
9 5 7 6 6 7 7 9 8 8 7 8 7 6 5 6 8 9 7 6 5 4 5 4 4 4 4 3 3 2 2 1 1 2 2 1 1 2 2 3 3 2 0 1 1 2 2 2 2 2 2 3 7 3
8 7 4 2 4 5 6 5 5 6 8 8 6 7 7 10 10 7 4 3 3 3 2 2 2 3 3 2 2 1 1 0 1 1 1 0 0 0 1 2 3 1 0 0 1 1 2 2 2 2 2 2 1 2
5 5 7 5 5 4 7 7 7 7 7 5 6 8 9 9 8 4 3 2 2 1 2 1 1 1 1 1 1 1 1 0 0 0 0 0 0 0 -0 0 0 8 0 0 0 0 1 1 1 1 1 2 2 3
6 4 4 7 6 6 5 6 6 5 4 5 7 7 7 3 3 2 2 2 2 2 2 2 1 1 1 1 0 0 1 1 2 3 3 3 3 2 -0 -0 -0 0 0 0 6 5 2 2 1 1 1 2 2 4
6 4 6 6 7 7 5 4 4 3 2 3 3 3 3 3 2 0 2 3 3 3 2 1 1 1 2 2 2 2 1 0 1 2 3 3 3 1 1 2 2 1 1 1 1 0 6 4 5 2 2 2 3 4
5 5 6 6 7 5 3 3 2 2 2 3 2 3 4 3 1 0 2 2 2 3 2 2 2 2 2 2 2 2 2 1 1 1 2 3 3 3 4 4 3 3 3 3 2 2 2 2 1 2 2 3 5 5
7 8 7 8 6 3 2 3 3 4 4 3 4 3 3 4 5 3 1 2 3 3 5 3 3 3 1 1 1 1 7 1 1 2 3 4 5 5 5 4 4 4 4 4 3 2 2 2 2 1 2 5 5 5
6 6 6 6 6 6 4 5 5 5 4 5 4 3 4 4 7 3 1 0 1 2 2 2 1 1 0 1 1 2 4 2 6 9 9 10 10 9 6 5 5 5 4 4 3 3 3 3 3 3 3 3 4 5